TimeCDT,TemperatureF,Dew PointF,Humidity,Sea Level PressureIn,VisibilityMPH,Wind Direction,Wind SpeedMPH,Gust SpeedMPH,PrecipitationIn,Events,Conditions,WindDirDegrees,DateUTC
12:53 AM,70.0,66.0,87,29.74,10.0,South,12.7,-,N/A,,Clear,190,2012-10-24 05:53:00
1:53 AM,70.0,66.0,87,29.74,10.0,South,16.1,-,N/A,,Clear,190,2012-10-24 06:53:00
2:53 AM,70.0,66.0,87,29.74,10.0,South,15.0,-,N/A,,Clear,190,2012-10-24 07:53:00
3:53 AM,69.1,64.9,87,29.74,10.0,South,16.1,20.7,N/A,,Clear,180,2012-10-24 08:53:00
4:53 AM,69.1,64.9,87,29.73,10.0,South,16.1,23.0,N/A,,Partly Cloudy,180,2012-10-24 09:53:00
5:49 AM,68.0,64.4,88,29.76,10.0,South,17.3,24.2,N/A,,Mostly Cloudy,180,2012-10-24 10:49:00
5:53 AM,69.1,64.9,87,29.74,10.0,South,13.8,23.0,N/A,,Mostly Cloudy,180,2012-10-24 10:53:00
6:07 AM,68.0,64.4,88,29.76,10.0,South,15.0,-,N/A,,Scattered Clouds,180,2012-10-24 11:07:00
6:53 AM,68.0,64.9,90,29.74,10.0,South,16.1,26.5,N/A,,Mostly Cloudy,180,2012-10-24 11:53:00
7:53 AM,69.1,64.9,87,29.74,10.0,South,21.9,28.8,N/A,,Mostly Cloudy,190,2012-10-24 12:53:00
8:53 AM,69.1,64.9,87,29.75,10.0,South,19.6,27.6,N/A,,Overcast,190,2012-10-24 13:53:00
9:53 AM,70.0,64.9,84,29.76,10.0,South,20.7,32.2,N/A,,Overcast,190,2012-10-24 14:53:00
10:53 AM,71.1,64.9,81,29.76,10.0,South,17.3,27.6,N/A,,Overcast,180,2012-10-24 15:53:00
11:53 AM,73.0,64.9,76,29.77,10.0,South,13.8,24.2,N/A,,Overcast,190,2012-10-24 16:53:00
12:53 PM,75.9,64.9,69,29.74,10.0,South,19.6,27.6,N/A,,Mostly Cloudy,190,2012-10-24 17:53:00
1:17 PM,77.0,64.4,65,29.76,10.0,SSW,20.7,27.6,N/A,,Scattered Clouds,200,2012-10-24 18:17:00
1:53 PM,79.0,64.9,62,29.71,10.0,South,17.3,-,N/A,,Partly Cloudy,180,2012-10-24 18:53:00
2:53 PM,82.9,66.0,56,29.68,10.0,SSW,19.6,28.8,N/A,,Partly Cloudy,200,2012-10-24 19:53:00
4:53 PM,82.0,64.9,56,29.66,10.0,South,16.1,23.0,N/A,,Partly Cloudy,170,2012-10-24 21:53:00
5:53 PM,81.0,64.9,58,29.65,10.0,South,17.3,-,N/A,,Mostly Cloudy,170,2012-10-24 22:53:00
6:53 PM,79.0,64.0,60,29.66,10.0,South,16.1,26.5,N/A,,Mostly Cloudy,170,2012-10-24 23:53:00
7:53 PM,75.9,62.1,62,29.67,10.0,South,17.3,-,N/A,,Mostly Cloudy,170,2012-10-25 00:53:00
8:53 PM,75.0,62.1,64,29.68,10.0,South,20.7,29.9,N/A,,Overcast,170,2012-10-25 01:53:00
9:53 PM,75.0,62.1,64,29.67,10.0,South,18.4,27.6,N/A,,Overcast,180,2012-10-25 02:53:00
10:53 PM,73.9,62.1,66,29.68,10.0,South,17.3,23.0,N/A,,Overcast,180,2012-10-25 03:53:00
11:53 PM,73.0,61.0,66,29.66,10.0,South,13.8,-,N/A,,Overcast,170,2012-10-25 04:53:00